Time,TemperatureF,DewpointF,PressureIn,WindDirection,WindDirectionDegrees,WindSpeedMPH,WindSpeedGustMPH,Humidity,HourlyPrecipIn,Conditions,Clouds,dailyrainin,SoftwareType,DateUTC
2013-06-28 00:13:00,53.8,37.0,29.95,SSW,200,2.0,2.0,54,0.00,,,0.00,weatherlink.com 1.10,2013-06-28 06:13:00,
2013-06-28 00:28:00,54.2,37.0,29.95,SSW,211,0.0,0.0,53,0.00,,,0.00,weatherlink.com 1.10,2013-06-28 06:28:00,
2013-06-28 00:43:00,54.8,38.0,29.94,SSW,210,0.0,3.0,53,0.00,,,0.00,weatherlink.com 1.10,2013-06-28 06:43:00,
2013-06-28 00:58:00,55.6,38.0,29.94,WSW,239,2.0,5.0,52,0.00,,,0.00,weatherlink.com 1.10,2013-06-28 06:58:00,
2013-06-28 01:13:00,55.7,39.0,29.93,ESE,110,0.0,0.0,53,0.00,,,0.00,weatherlink.com 1.10,2013-06-28 07:13:00,
2013-06-28 01:28:00,55.5,39.0,29.94,SW,225,1.0,4.0,54,0.00,,,0.00,weatherlink.com 1.10,2013-06-28 07:28:00,
2013-06-28 01:43:00,55.7,39.0,29.94,SSW,204,5.0,7.0,54,0.00,,,0.00,weatherlink.com 1.10,2013-06-28 07:43:00,
2013-06-28 01:58:00,56.3,39.0,29.93,SW,215,0.0,5.0,53,0.00,,,0.00,weatherlink.com 1.10,2013-06-28 07:58:00,
2013-06-28 02:13:00,55.4,39.0,29.92,SW,215,1.0,6.0,54,0.00,,,0.00,weatherlink.com 1.10,2013-06-28 08:13:00,
2013-06-28 02:28:00,55.0,38.0,29.91,West,277,2.0,4.0,54,0.00,,,0.00,weatherlink.com 1.10,2013-06-28 08:28:00,
2013-06-28 02:43:00,55.2,38.0,29.91,SSW,210,3.0,7.0,53,0.00,,,0.00,weatherlink.com 1.10,2013-06-28 08:43:00,
2013-06-28 02:59:00,54.6,38.0,29.90,ESE,105,0.0,4.0,53,0.00,,,0.00,weatherlink.com 1.10,2013-06-28 08:59:00,
2013-06-28 03:14:00,54.8,38.0,29.89,SSW,195,1.0,8.0,53,0.00,,,0.00,weatherlink.com 1.10,2013-06-28 09:14:00,
2013-06-28 03:29:00,54.6,38.0,29.89,ENE,69,3.0,3.0,54,0.00,,,0.00,weatherlink.com 1.10,2013-06-28 09:29:00,
2013-06-28 03:44:00,54.6,37.0,29.90,South,182,0.0,4.0,51,0.00,,,0.00,weatherlink.com 1.10,2013-06-28 09:44:00,
2013-06-28 03:59:00,52.1,37.0,29.91,WSW,238,0.0,1.0,56,0.00,,,0.00,weatherlink.com 1.10,2013-06-28 09:59:00,
2013-06-28 04:14:00,49.9,36.0,29.90,SW,214,0.0,2.0,60,0.00,,,0.00,weatherlink.com 1.10,2013-06-28 10:14:00,
2013-06-28 04:29:00,49.9,36.0,29.90,SSW,208,2.0,4.0,59,0.00,,,0.00,weatherlink.com 1.10,2013-06-28 10:29:00,
2013-06-28 04:44:00,50.5,36.0,29.89,SSW,212,1.0,6.0,57,0.00,,,0.00,weatherlink.com 1.10,2013-06-28 10:44:00,
2013-06-28 04:59:00,51.4,35.0,29.90,SSW,198,0.0,3.0,54,0.00,,,0.00,weatherlink.com 1.10,2013-06-28 10:59:00,
2013-06-28 05:14:00,52.5,35.0,29.91,SW,225,3.0,8.0,51,0.00,,,0.00,weatherlink.com 1.10,2013-06-28 11:14:00,
2013-06-28 05:29:00,52.3,34.0,29.90,SSW,210,3.0,6.0,51,0.00,,,0.00,weatherlink.com 1.10,2013-06-28 11:29:00,
2013-06-28 05:44:00,51.6,35.0,29.91,SSW,203,0.0,4.0,53,0.00,,,0.00,weatherlink.com 1.10,2013-06-28 11:44:00,
2013-06-28 05:59:00,52.1,35.0,29.91,SW,217,4.0,6.0,52,0.00,,,0.00,weatherlink.com 1.10,2013-06-28 11:59:00,
2013-06-28 06:14:00,53.6,35.0,29.91,South,172,0.0,6.0,50,0.00,,,0.00,weatherlink.com 1.10,2013-06-28 12:14:00,
2013-06-28 06:29:00,56.3,36.0,29.91,SE,131,0.0,4.0,47,0.00,,,0.00,weatherlink.com 1.10,2013-06-28 12:29:00,
2013-06-28 06:44:00,60.1,37.0,29.91,ESE,110,0.0,2.0,43,0.00,,,0.00,weatherlink.com 1.10,2013-06-28 12:44:00,
2013-06-28 06:59:00,62.8,38.0,29.92,SSE,167,0.0,2.0,40,0.00,,,0.00,weatherlink.com 1.10,2013-06-28 12:59:00,
2013-06-28 07:14:00,66.0,38.0,29.91,SSW,204,1.0,4.0,36,0.00,,,0.00,weatherlink.com 1.10,2013-06-28 13:14:00,
2013-06-28 07:29:00,67.8,40.0,29.91,SSW,211,0.0,2.0,36,0.00,,,0.00,weatherlink.com 1.10,2013-06-28 13:29:00,
2013-06-28 07:44:00,70.1,39.0,29.91,SSW,201,0.0,3.0,32,0.00,,,0.00,weatherlink.com 1.10,2013-06-28 13:44:00,
2013-06-28 07:59:00,71.2,39.0,29.91,WSW,252,2.0,5.0,31,0.00,,,0.00,weatherlink.com 1.10,2013-06-28 13:59:00,
2013-06-28 08:14:00,74.2,39.0,29.91,SW,231,1.0,3.0,28,0.00,,,0.00,weatherlink.com 1.10,2013-06-28 14:14:00,
2013-06-28 08:29:00,76.2,40.0,29.91,WSW,240,3.0,6.0,27,0.00,,,0.00,weatherlink.com 1.10,2013-06-28 14:29:00,
2013-06-28 08:45:00,77.2,33.0,29.91,WNW,286,2.0,9.0,20,0.00,,,0.00,weatherlink.com 1.10,2013-06-28 14:45:00,
2013-06-28 09:00:00,77.8,34.0,29.91,NW,307,6.0,8.0,20,0.00,,,0.00,weatherlink.com 1.10,2013-06-28 15:00:00,
2013-06-28 09:15:00,77.6,32.0,29.91,West,267,2.0,9.0,19,0.00,,,0.00,weatherlink.com 1.10,2013-06-28 15:15:00,
2013-06-28 09:30:00,78.1,31.0,29.90,WNW,293,10.0,14.0,18,0.00,,,0.00,weatherlink.com 1.10,2013-06-28 15:30:00,
2013-06-28 09:45:00,78.4,33.0,29.90,WSW,238,3.0,9.0,19,0.00,,,0.00,weatherlink.com 1.10,2013-06-28 15:45:00,
2013-06-28 10:00:00,78.5,33.0,29.90,NW,316,5.0,11.0,19,0.00,,,0.00,weatherlink.com 1.10,2013-06-28 16:00:00,
2013-06-28 10:15:00,79.2,29.0,29.90,West,275,6.0,13.0,16,0.00,,,0.00,weatherlink.com 1.10,2013-06-28 16:15:00,
2013-06-28 10:30:00,80.0,33.0,29.90,West,266,4.0,11.0,18,0.00,,,0.00,weatherlink.com 1.10,2013-06-28 16:30:00,
2013-06-28 10:45:00,79.4,31.0,29.89,NW,312,7.0,19.0,17,0.00,,,0.00,weatherlink.com 1.10,2013-06-28 16:45:00,
2013-06-28 11:00:00,80.1,33.0,29.89,NNW,335,7.0,10.0,18,0.00,,,0.00,weatherlink.com 1.10,2013-06-28 17:00:00,
2013-06-28 11:15:00,80.1,34.0,29.88,NNW,339,5.0,12.0,19,0.00,,,0.00,weatherlink.com 1.10,2013-06-28 17:15:00,
2013-06-28 11:30:00,80.7,32.0,29.89,WSW,250,15.0,15.0,17,0.00,,,0.00,weatherlink.com 1.10,2013-06-28 17:30:00,
2013-06-28 11:45:00,80.6,32.0,29.88,WSW,239,3.0,16.0,17,0.00,,,0.00,weatherlink.com 1.10,2013-06-28 17:45:00,
2013-06-28 12:00:00,79.1,39.0,29.88,ENE,76,8.0,16.0,24,0.00,,,0.00,weatherlink.com 1.10,2013-06-28 18:00:00,
2013-06-28 12:15:00,77.7,46.0,29.87,East,79,8.0,14.0,32,0.00,,,0.00,weatherlink.com 1.10,2013-06-28 18:15:00,
2013-06-28 12:30:00,76.8,46.0,29.87,East,86,8.0,14.0,33,0.00,,,0.00,weatherlink.com 1.10,2013-06-28 18:30:00,
2013-06-28 12:45:00,76.4,47.0,29.87,ENE,74,13.0,14.0,35,0.00,,,0.00,weatherlink.com 1.10,2013-06-28 18:45:00,
2013-06-28 13:00:00,76.8,47.0,29.86,East,79,7.0,15.0,35,0.00,,,0.00,weatherlink.com 1.10,2013-06-28 19:00:00,
2013-06-28 13:15:00,76.8,46.0,29.86,East,93,2.0,11.0,34,0.00,,,0.00,weatherlink.com 1.10,2013-06-28 19:15:00,
2013-06-28 13:30:00,75.7,43.0,29.85,North,358,5.0,8.0,31,0.00,,,0.00,weatherlink.com 1.10,2013-06-28 19:30:00,
2013-06-28 13:45:00,77.0,43.0,29.84,East,82,3.0,9.0,30,0.00,,,0.00,weatherlink.com 1.10,2013-06-28 19:45:00,
2013-06-28 14:00:00,78.3,43.0,29.84,ENE,65,6.0,13.0,29,0.00,,,0.00,weatherlink.com 1.10,2013-06-28 20:00:00,
2013-06-28 14:15:00,77.5,44.0,29.84,East,89,11.0,13.0,30,0.00,,,0.00,weatherlink.com 1.10,2013-06-28 20:15:00,
2013-06-28 14:30:00,75.2,43.0,29.84,ESE,106,4.0,12.0,32,0.00,,,0.00,weatherlink.com 1.10,2013-06-28 20:30:00,
2013-06-28 14:45:00,74.9,46.0,29.84,ENE,75,5.0,11.0,36,0.00,,,0.00,weatherlink.com 1.10,2013-06-28 20:45:00,
2013-06-28 15:00:00,74.4,47.0,29.83,ENE,74,7.0,11.0,38,0.00,,,0.00,weatherlink.com 1.10,2013-06-28 21:00:00,
2013-06-28 15:15:00,75.6,48.0,29.84,ENE,64,5.0,10.0,38,0.00,,,0.00,weatherlink.com 1.10,2013-06-28 21:15:00,
2013-06-28 15:30:00,76.5,49.0,29.83,NE,45,4.0,10.0,38,0.00,,,0.00,weatherlink.com 1.10,2013-06-28 21:30:00,
2013-06-28 15:45:00,75.6,48.0,29.83,East,79,4.0,10.0,38,0.00,,,0.00,weatherlink.com 1.10,2013-06-28 21:45:00,
2013-06-28 16:00:00,75.1,48.0,29.84,NE,45,1.0,8.0,39,0.00,,,0.00,weatherlink.com 1.10,2013-06-28 22:00:00,
2013-06-28 16:15:00,73.7,49.0,29.84,NNE,32,6.0,9.0,42,0.00,,,0.00,weatherlink.com 1.10,2013-06-28 22:15:00,
2013-06-28 16:30:00,73.6,50.0,29.84,ENE,75,4.0,7.0,43,0.00,,,0.00,weatherlink.com 1.10,2013-06-28 22:30:00,
2013-06-28 16:45:00,73.2,50.0,29.84,ENE,69,6.0,7.0,44,0.00,,,0.00,weatherlink.com 1.10,2013-06-28 22:45:00,
2013-06-28 17:00:00,72.8,50.0,29.84,NE,55,5.0,6.0,45,0.00,,,0.00,weatherlink.com 1.10,2013-06-28 23:00:00,
2013-06-28 17:15:00,72.5,50.0,29.83,ENE,72,3.0,5.0,45,0.00,,,0.00,weatherlink.com 1.10,2013-06-28 23:15:00,
2013-06-28 17:30:00,72.4,49.0,29.82,ESE,107,5.0,7.0,43,0.00,,,0.00,weatherlink.com 1.10,2013-06-28 23:30:00,
2013-06-28 17:45:00,72.1,48.0,29.82,East,98,1.0,4.0,43,0.00,,,0.00,weatherlink.com 1.10,2013-06-28 23:45:00,
2013-06-28 18:00:00,71.9,49.0,29.83,ENE,58,4.0,7.0,45,0.00,,,0.00,weatherlink.com 1.10,2013-06-29 00:00:00,
2013-06-28 18:15:00,71.1,50.0,29.82,East,79,5.0,7.0,47,0.00,,,0.00,weatherlink.com 1.10,2013-06-29 00:15:00,
2013-06-28 18:30:00,70.3,50.0,29.83,ENE,60,0.0,5.0,49,0.00,,,0.00,weatherlink.com 1.10,2013-06-29 00:30:00,
2013-06-28 18:46:00,66.8,55.0,29.84,WNW,290,9.0,10.0,65,0.00,,,0.00,weatherlink.com 1.10,2013-06-29 00:46:00,
2013-06-28 20:03:00,55.2,52.0,29.86,SSE,148,0.0,3.0,90,0.03,,,0.29,weatherlink.com 1.10,2013-06-29 02:03:00,
2013-06-28 20:16:00,55.9,53.0,29.85,SE,146,0.0,2.0,90,0.01,,,0.29,weatherlink.com 1.10,2013-06-29 02:16:00,
2013-06-28 20:31:00,55.8,53.0,29.84,West,271,1.0,5.0,89,0.00,,,0.29,weatherlink.com 1.10,2013-06-29 02:31:00,
2013-06-28 20:46:00,55.6,52.0,29.84,SSW,200,0.0,5.0,88,0.00,,,0.29,weatherlink.com 1.10,2013-06-29 02:46:00,
2013-06-28 21:01:00,55.6,52.0,29.87,ESE,118,2.0,3.0,88,0.00,,,0.29,weatherlink.com 1.10,2013-06-29 03:01:00,
2013-06-28 21:16:00,55.4,52.0,29.88,SW,233,0.0,2.0,88,0.00,,,0.29,weatherlink.com 1.10,2013-06-29 03:16:00,
2013-06-28 21:31:00,54.7,52.0,29.90,SSE,162,0.0,0.0,90,0.00,,,0.29,weatherlink.com 1.10,2013-06-29 03:31:00,
2013-06-28 21:46:00,54.6,52.0,29.92,SSE,163,0.0,0.0,92,0.00,,,0.29,weatherlink.com 1.10,2013-06-29 03:46:00,
2013-06-28 22:01:00,54.6,52.0,29.95,NE,48,0.0,2.0,92,0.00,,,0.29,weatherlink.com 1.10,2013-06-29 04:01:00,
2013-06-28 22:16:00,55.5,53.0,29.97,NNE,27,2.0,6.0,92,0.00,,,0.29,weatherlink.com 1.10,2013-06-29 04:16:00,
2013-06-28 22:31:00,56.9,54.0,29.97,ENE,71,0.0,2.0,89,0.00,,,0.29,weatherlink.com 1.10,2013-06-29 04:31:00,
2013-06-28 22:46:00,55.0,52.0,29.95,West,280,2.0,5.0,89,0.09,,,0.38,weatherlink.com 1.10,2013-06-29 04:46:00,
2013-06-28 23:01:00,53.4,51.0,29.94,SSW,208,0.0,4.0,92,0.09,,,0.38,weatherlink.com 1.10,2013-06-29 05:01:00,
2013-06-28 23:16:00,52.9,51.0,29.94,SE,144,0.0,4.0,93,0.09,,,0.38,weatherlink.com 1.10,2013-06-29 05:16:00,
2013-06-28 23:31:00,53.1,52.0,29.93,ESE,111,2.0,4.0,94,0.10,,,0.39,weatherlink.com 1.10,2013-06-29 05:31:00,
2013-06-28 23:46:00,52.4,51.0,29.93,SE,133,0.0,0.0,94,0.01,,,0.39,weatherlink.com 1.10,2013-06-29 05:46:00,